Weather History for Zacatecas Airport, Mexico

Change the Weather History Date:

Tuesday, December 4, 2012

  Actual Average Record
Temperature  
Mean Temperature 52 °F -  
Max Temperature 71 °F 67 °F 77 °F (2013)
Min Temperature 32 °F 36 °F 26 °F (1997)
Degree Days  
Heating Degree Days 14    
Growing Degree Days 2 (Base 50)    
Moisture  
Dew Point 28 °F    
Average Humidity 41    
Maximum Humidity 75    
Minimum Humidity 20    
Precipitation  
Precipitation 0.00 in - - ()
Sea Level Pressure  
Sea Level Pressure 30.35 in    
Wind  
Wind Speed 3 mph ()    
Max Wind Speed 14 mph    
Max Gust Speed -    
Visibility 10.0 miles    
Events      
Averages and records for this station are not official NWS values.
T = Trace of Precipitation, MM = Missing Value Source: Averaged Metar Reports

Daily Weather History Graph

Daily Weather History Graph

Search for Another Location

Airport:

Trip Planner

Search our weather history database for the weather conditions in past years. The results will help you decide how hot, cold, wet, or windy it might be!

Date:

Astronomy

Dec. 04, 2012 Rise Set
Actual Time 7:17 AM CST 6:05 PM CST
Civil Twilight 6:52 AM CST 6:29 PM CST
Nautical Twilight 6:24 AM CST 6:57 PM CST
Astronomical Twilight 5:57 AM CST 7:24 PM CST
Moon 11:28 PM CST (12/4) 11:35 AM CST (12/4)
Length of Visible Light 11h 36m
Length of Day
10h 48m
Waning Gibbous, 69% of the Moon is Illuminated
Dec 4
Waning Gibbous
Dec 6
Last Quarter
Dec 13
New
Dec 19
First Quarter
Dec 28
Full

Hourly Weather History & Observations

Time (CST) Temp. Windchill Dew Point Humidity Pressure Visibility Wind Dir Wind Speed Gust Speed Precip Events Conditions
12:42 AM 42.8 °F - 26.6 °F 53% 30.31 in 10.0 mi Calm Calm - N/A   Clear
1:42 AM 41.0 °F - 26.6 °F 57% 30.31 in 10.0 mi Calm Calm - N/A   Clear
3:42 AM 42.8 °F - 28.4 °F 57% 30.30 in 10.0 mi Calm Calm - N/A   Clear
4:42 AM 37.4 °F - 24.8 °F 60% 30.31 in 10.0 mi Calm Calm - N/A   Clear
5:43 AM 35.6 °F 31.7 °F 28.4 °F 75% 30.32 in 10.0 mi South 4.6 mph - N/A   Clear
6:47 AM 32.0 °F - 23.0 °F 69% 30.35 in 10.0 mi Calm Calm - N/A   Clear
7:43 AM 37.4 °F 34.9 °F 26.6 °F 65% 30.37 in 10.0 mi South 3.5 mph - N/A   Clear
8:42 AM 46.4 °F 45.2 °F 30.2 °F 53% 30.39 in 10.0 mi SSW 3.5 mph - N/A   Clear
9:45 AM 57.2 °F - 32.0 °F 38% 30.41 in 10.0 mi North 5.8 mph - N/A   Partly Cloudy
10:42 AM 62.6 °F - 32.0 °F 32% 30.41 in 10.0 mi NNE 11.5 mph - N/A   Partly Cloudy
11:40 AM 66.2 °F - 30.2 °F 26% 30.39 in 10.0 mi NNE 9.2 mph - N/A   Partly Cloudy
12:41 PM 71.6 °F - 30.2 °F 22% 30.36 in 10.0 mi NNE 12.7 mph - N/A   Partly Cloudy
1:45 PM 71.6 °F - 32.0 °F 23% 30.33 in 10.0 mi Calm Calm - N/A   Partly Cloudy
2:42 PM 71.6 °F - 30.2 °F 22% 30.31 in 10.0 mi NE 13.8 mph - N/A   Clear
4:04 PM 71.6 °F - 30.2 °F 22% 30.29 in 10.0 mi ENE 8.1 mph - N/A   Clear
4:47 PM 71.6 °F - 28.4 °F 20% 30.30 in 10.0 mi NNE 11.5 mph - N/A   Clear
5:47 PM 66.2 °F - 26.6 °F 23% 30.32 in 10.0 mi NNE 13.8 mph - N/A   Clear
6:46 PM 59.0 °F - 24.8 °F 27% 30.34 in 10.0 mi Calm Calm - N/A   Clear
7:45 PM 55.4 °F - 23.0 °F 29% 30.35 in 10.0 mi ENE 6.9 mph - N/A   Clear
8:46 PM 50.0 °F - 23.0 °F 35% 30.37 in 10.0 mi Calm Calm - N/A   Clear
9:52 PM 48.2 °F - 23.0 °F 37% 30.39 in 10.0 mi SW 3.5 mph - N/A   Clear
10:52 PM 44.6 °F - 28.4 °F 53% 30.40 in 10.0 mi Calm Calm - N/A   Clear